Other Surface Observations
Issued by NWS

Home | Current Version | Previous Version | Text Only | Print | Product List | Glossary On
Versions: 1 2 3 4 5 6 7 8 9 10 11 12 13 14 15 16 17 18 19 20 21 22 23 24 25 26 27 28 29 30 31 32 33 34 35 36 37 38 39 40 41 42 43 44 45 46 47 48 49 50
400
SXUS52 KTAE 031318
OSOTAE
OSOTAE
North Florida/South Alabama/Southwest Georgia Weather Roundup
National Weather Service Tallahassee Florida
900 AM EDT TUE MAY 03 2016

Note: "fair" indicates few or no clouds below 12,000 feet with no
significant weather and/or obstructions to visibility.

!FLZ017-115-028-034-025-031400
...North Florida...

CITY           SKY/WX    TMP DP  RH WIND       PRES   REMARKS
TALLAHASSEE    CLOUDY    75  71  87 W8        29.94S VSB 3/4
APALACHICOLA   FAIR      78  74  87 W6        29.94R
PERRY          LGT RAIN  70  67  90 N5        29.97R
CROSS CITY       N/A     77  71  82 S5        29.94F
JACKSONVILLE   FAIR      76  71  85 SW13      29.93S
$$

!FLZ112-006-005-002-011-031400
...Florida Panhandle...

CITY           SKY/WX    TMP DP  RH WIND       PRES   REMARKS
MARIANNA       PTSUNNY   74  73  97 SW5       29.93S
BONIFAY        CLOUDY    73  70  90 CALM      29.95
PANAMA CITY NW FAIR      74  72  93 CALM      29.93R
TYNDALL AFB    MOSUNNY   77  72  85 W9        29.94R
TYND DRONE APT PTSUNNY   77  73  88 W6        29.94R
DE FUNIAK SPR  CLOUDY    70  70 100 NW5       29.95R FOG
EGLIN AFB      MOSUNNY   74  71  88 NW1       29.93R
DESTIN         FAIR      79  74  84 NW3       29.93R
HURLBURT       FAIR      74  71  90 N3        29.92R
CRESTVIEW      CLOUDY    70  67  90 N3        29.96R
PENSACOLA      PTSUNNY   74  71  91 NW12      29.93R
$$

!ALZ063-066-031400
...South Alabama...

CITY           SKY/WX    TMP DP  RH WIND       PRES   REMARKS
DOTHAN         CLOUDY    70  66  87 NW10      29.98R
OZARK CAIRNS   CLOUDY    70  67  91 N6        29.94S
FT RUCKER HELI CLOUDY    70  66  87 N3        29.94R
RUCKER HELI 3  CLOUDY    70  66  88 N6        29.96S
RUCKER HELI 2  NOT AVBL
FLORALA APT    CLOUDY    68  65  90 N5        29.96S
ANDALUSIA      CLOUDY    72  66  81 N3        29.95R
TROY           CLOUDY    69  66  90 CALM      29.96R
EUFALA         CLOUDY    71  66  84 W5        29.93R
MOBILE         FOG       68  68 100 N9        29.96R VSB 1
$$

!GAZ120>161-031400
...Southwest and South Central Georgia...

CITY           SKY/WX    TMP DP  RH WIND       PRES   REMARKS
THOMASVILLE    PTSUNNY   73  70  88 W8        29.95S
BAINBRIDGE     FAIR      73  70  88 W6        29.94S
MOODY AFB      CLOUDY    72  70  94 W8        29.93S
VALDOSTA       CLOUDY    73  71  93 CALM      29.95R
MOULTRIE       PTSUNNY   73  70  88 W5        29.95S
BLAKELY        PTSUNNY   75  70  83 CALM      29.95R
ALBANY         PTSUNNY   74  69  85 W7        29.95S
TIFTON         CLOUDY    73  73  99 S6        29.93F THUNDER
FITZGERALD     TSTM      74  72  93 NW12      29.97R
CORDELE        CLOUDY    75  70  86 W6        29.94S
AMERICUS       CLOUDY    70  70 100 W8        29.95S
HOMERVILLE     CLOUDY    72  72 100 W12       29.95R
$$

!GMZ750-755-770-775-031400
...Coastal and Buoy Obs...

STATION/POSITION TIME  TEMP    WIND        PRES    VSBY  WAVE
                       AIR SEA DIR/SP/G                  HT/PER
                 (UTC) (F)     (DEG/KT/KT) (MB)    (MI)  (FT/S)
KEATON BEACH     1300   77     220/ 10/ 12 1014.0R
CEDAR KEY        1300   78     220/  7/ 10 1014.7R
C TOWER          1300   76     270/  3/  4 1014.5R
APALACHICOLA BUO 1250   76 76  170/  4/  6 1013.9R         2/ 6
PANAMA CITY BUOY 1250   78 78  210/  8/ 10 1013.8R         2/ 7
MOBILE BUOY      1300   77 77  320/  4/  8 1013.4R
ORANGE BCH AL BU 1250   74 76  270/  4/  6 1012.6R         2/ 6
$$




USA.gov is the U.S. government's official web portal to all federal, state and local government web resources and services.